Location: *
(51.5000°N, 0.1100°W)
Time: 07:28:20
(UTC+00:00)

Cosmos 1455 - Pass Details

Date: 09 August 2024
Orbit: 432 x 446 km, 82.5° (Epoch: 07 September)

Event Time Altitude Azimuth Distance (km) Brightness Sun altitude
Rises 03:06:12 0° 147° (SSE) 2,467 5.5 -12.2°
Reaches altitude 10° 03:08:53 10° 124° (SE) 1,594 4.8 -11.9°
Maximum altitude 03:11:00 16° 87° (E) 1,294 4.9 -11.7°
Drops below altitude 10° 03:13:07 10° 49° (NE) 1,594 6.3 -11.4°
Sets 03:15:44 0° 26° (NNE) 2,448 7.1 -11.1°
